Location: Balaclava NSW 2575, Australia
(34.4510°S, 150.4953°E)
Time: 12:57:48
(UTC+10:00)

Courier 1B - Visible Passes

Search period start: 13 June 2021 00:00
Search period end: 23 June 2021 00:00
Orbit: 962 x 1209 km, 28.3° (Epoch: 12 June)

Date Brightness Start Highest point End Pass type
(mag) Time Alt. Az. Time Alt. Az. Time Alt. Az.
13 Jun 10.3 02:44:29 12° E 02:44:29 12° E 02:44:57 10° E visible
13 Jun 8.0 04:31:23 50° NNW 04:32:16 53° N 04:39:28 10° ENE visible
13 Jun 8.6 06:19:17 10° W 06:26:11 47° N 06:33:28 10° ENE visible
14 Jun 8.9 03:41:03 35° ENE 03:41:03 35° ENE 03:45:28 10° E visible
14 Jun 8.3 05:27:57 22° WNW 05:32:22 51° N 05:39:36 10° ENE visible
15 Jun 10.2 02:50:42 13° E 02:50:42 13° E 02:51:28 10° E visible
15 Jun 8.0 04:37:36 49° NNW 04:38:35 52° N 04:45:42 10° ENE visible
15 Jun 8.8 06:25:53 10° W 06:32:24 37° NNW 06:39:14 10° NE visible
16 Jun 8.8 03:47:15 37° NE 03:47:15 37° NE 03:51:46 10° ENE visible
16 Jun 8.5 05:34:08 20° WNW 05:38:37 42° NNW 05:45:33 10° NE visible
17 Jun 10.1 02:56:53 14° ENE 02:56:53 14° ENE 02:57:51 10° ENE visible
17 Jun 8.1 04:43:46 43° NW 04:44:52 46° N 04:51:47 10° ENE visible
17 Jun 9.2 06:32:47 10° WNW 06:38:32 26° NNW 06:44:32 10° NNE visible
18 Jun 8.8 03:53:25 37° NE 03:53:25 37° NE 03:57:58 10° ENE visible
18 Jun 8.9 05:40:18 16° WNW 05:44:48 31° NNW 05:51:08 10° NE visible
19 Jun 10.0 03:03:03 15° ENE 03:03:03 15° ENE 03:04:07 10° ENE visible
19 Jun 8.4 04:49:57 34° NW 04:51:06 36° NNW 04:57:36 10° NE visible
20 Jun 8.9 03:59:36 33° NNE 03:59:36 33° NNE 04:03:57 10° NE visible
20 Jun 9.3 05:46:30 12° WNW 05:50:57 21° NNW 05:56:07 10° NNE visible
21 Jun 10.0 03:09:16 14° ENE 03:09:16 14° ENE 03:10:15 10° ENE visible
21 Jun 8.8 04:56:10 25° NW 04:57:17 26° NNW 05:02:58 10° NNE visible
22 Jun 9.1 04:05:51 26° NNE 04:05:51 26° NNE 04:09:36 10° NE visible
22 Jun 9.6 05:54:33 10° NW 05:57:02 12° NNW 05:59:34 10° N visible
